Погода в Николаевке

Россия / Кемеровская область (Кузбасс)     55°52′49″N   87°15′34″E
темп.,
°C
ветер,
м/с
пор.,
м/с
влажн.,
%
обл.,
%
осадки,
мм/ч
давл.,
гПа
погр.,
м
6 марта, сб
сб601:00−5юз81691100 1.3 10151366
04:00−6юз81690100 1.2 10151290
07:00−6юз81589100 1.8 10161060
10:00−5юз81689100 0.4 10151077
13:00−4юз91978100 0.6 10131101
16:00−3юз102072100 0.0 10111354
19:00−4юз91888100 0.2 10101277
22:00−4юз81688100 0.8 10091098
7 марта, вс
вс701:00−4юз81689100 0.9 10091132
04:00−4юз71490100 0.2 10091100
07:00−5зюз61577100 0.6 10111010
10:00−7зюз7147248 0.0 1013917
13:00−6зюз6117224 0.0 10151159
16:00−6зюз6107540 0.0 10171259
19:00−9зюз4128351 0.0 1019520
22:00−11юз411886 0.0 1021293
8 марта, пн
пн801:00−13юз488812 0.0 1023168
04:00−15ююз358723 0.0 102390
07:00−12ююв228558 0.0 102331
10:00−7ююв399288 0.0 1020376
13:00−1ю5118794 0.0 1016866
16:00+1ююз51282100 0.0 1011966
19:000ююз51578100 0.0 1007889
22:00−1юз91976100 0.0 10061138
9 марта, вт
вт901:00−2юз9188896 0.3 10071517
04:00−8зюз8168367 0.1 1012768
07:00−11зюз7158776 0.2 1017649
10:00−10зюз71486100 0.0 1020796
13:00−8зюз71284100 0.1 1023841
16:00−7юз6118126 0.0 1024889
19:00−10юз4118613 0.0 1026399
22:00−12ююз389032 0.0 1025174
10 марта, ср
ср1001:00−12ю399066 0.0 1023217
04:00−12ю3888100 0.0 1020165
07:00−11ююз3109156 0.0 1018242
10:00−4юз6128790 0.0 1015787
13:00−1юз6128690 0.1 10131120
16:000юз51096100 0.2 10131076
19:00−1з3795100 0.5 1012379
22:00−3в1196100 0.1 101123